sat.trackr.live / text

‹ back to catalog

STARLINK-35906

NORAD 67112 · 2025-299L

PAYLOAD ACTIVE UNKNOWN

§ Identity

Operator
Country
US
Launch date
2025-12-15
Launch site
AFETR
Launch vehicle
Mass (kg)
RCS (m²)

Purposes: comms

External: N2YO · Heavens-Above · Gunter

§ Orbital elements

Epoch: 2026-05-25T04:40:12.021312Z

Period
94.27 min
Inclination
43.0021°
Eccentricity
0.0001278
Mean motion
15.27587522 rev/d
Perigee alt
482.1 km
Apogee alt
483.9 km
Semi-major
6,861.2 km
B*
4.3025e-4
RAAN
97.1913°
Arg perigee
264.9043°
Mean anomaly
95.1662°
Rev number
2,481

§ Raw data

STARLINK-359061 67112U 25299L   26145.19458358  .00011599  00000+0  43025-3 0  99962 67112  43.0021  97.1913 0001278 264.9043  95.1662 15.27587522 24813

JSON: /api/v1/satellites/67112 · /tle

For live sub-satellite position, see the globe view (requires WebGL).

§ Visibility from observer

Set your observer location to see the next 7 days of passes ≥ 10°. The values pass through the URL so the page stays shareable.

No JS? Fill the form by hand. The geolocation button needs JavaScript.